Location: Makakahi
(40.6833°S, 175.6000°E)
Time: 07:43:26
(UTC+00:00)

DMSP B5D2-8 - Pass Details

Date: 20 January 2026
Orbit: 830 x 841 km, 98.8° (Epoch: 10 February)

Event Time Altitude Azimuth Distance (km) Brightness Sun altitude
Rises 08:33:12 0° 183° (S) 3,422 8.5 -8.3°
Reaches altitude 10° 08:36:25 10° 203° (SSW) 2,481 8.2 -8.8°
Maximum altitude 08:39:44 17° 240° (WSW) 2,046 8.1 -9.3°
Drops below altitude 10° 08:43:03 10° 278° (W) 2,468 7.8 -9.8°
Sets 08:46:15 0° 297° (WNW) 3,396 8.2 -10.3°
